Siloam Springs, AR

9:59 AM CST on December 14, 2019 (GMT -0600)
Smith

Weather History for KSLG - October, 2019

Change the Weather History Date:

Sunday, October 20, 2019

  Actual Average Record
Temperature  
Mean Temperature 64 °F -  
Max Temperature 77 °F 66 °F 82 °F (2003)
Min Temperature 52 °F 46 °F 28 °F (2011)
Growing Degree Days 14 (Base 50)    
Moisture  
Dew Point 56 °F    
Average Humidity 79    
Maximum Humidity 100    
Minimum Humidity 43    
Precipitation  
Precipitation 0.00 in - - ()
Sea Level Pressure  
Sea Level Pressure 29.73 in    
Wind  
Wind Speed 6 mph ()    
Max Wind Speed 23 mph    
Max Gust Speed 30 mph    
Visibility 6.7 miles    
Events Rain , Thunderstorm    
Averages and records for this station are not official NWS values.
T = Trace of Precipitation, MM = Missing Value Source: Averaged Metar Reports

Daily Weather History Graph

Daily Weather History Graph

Search for Another Location

Airport or City:

Astronomy

Oct. 20, 2019 Rise Set
Actual Time 7:29 AM CDT 6:35 PM CDT
Civil Twilight 7:03 AM CDT 7:01 PM CDT
Nautical Twilight 6:33 AM CDT 7:31 PM CDT
Astronomical Twilight 6:03 AM CDT 8:01 PM CDT
Moon 11:52 PM CDT (10/20) 1:50 PM CDT (10/20)
Length of Visible Light 11h 58m
Length of Day
11h 06m
Waning Gibbous, 59% of the Moon is Illuminated
Oct 20
Waning Gibbous
Oct 21
Last Quarter
Oct 27
New
Nov 4
First Quarter
Nov 12
Full

Hourly Weather History & Observations

Time (CDT) Temp. Dew Point Humidity Pressure Visibility Wind Dir Wind Speed Gust Speed Precip Events Conditions
12:56 AM 55.0 °F 54.0 °F 96% 29.83 in 10.0 mi Calm Calm - N/A   Clear
1:56 AM 54.0 °F 53.1 °F 97% 29.83 in 10.0 mi ENE 3.5 mph - N/A   Clear
2:56 AM 54.0 °F 53.1 °F 97% 29.83 in 10.0 mi Calm Calm - N/A   Partly Cloudy
3:56 AM 55.0 °F 54.0 °F 96% 29.81 in 10.0 mi Variable 3.5 mph - N/A   Clear
4:46 AM 53.6 °F 51.8 °F 94% 29.83 in 1.8 mi Calm Calm - N/A   Clear
4:51 AM 53.6 °F 51.8 °F 94% 29.84 in 3.0 mi ENE 3.5 mph - N/A   Clear
4:56 AM 53.1 °F 52.0 °F 96% 29.83 in 4.0 mi Calm Calm - N/A   Clear
5:56 AM 52.0 °F 52.0 °F 100% 29.83 in 8.0 mi East 5.8 mph - N/A   Clear
6:56 AM 53.1 °F 52.0 °F 96% 29.84 in 7.0 mi ENE 4.6 mph - N/A   Mostly Cloudy
7:13 AM 53.6 °F 53.6 °F 100% 29.86 in 4.0 mi East 6.9 mph - N/A   Overcast
7:56 AM 53.1 °F 53.1 °F 100% 29.83 in 2.5 mi ESE 5.8 mph - N/A   Mostly Cloudy
8:20 AM 53.6 °F 53.6 °F 100% 29.85 in 1.5 mi East 5.8 mph - N/A   Mostly Cloudy
8:36 AM 53.6 °F 53.6 °F 100% 29.85 in 2.0 mi East 6.9 mph - N/A   Scattered Clouds
8:48 AM 55.4 °F 53.6 °F 94% 29.85 in 4.0 mi East 4.6 mph - N/A   Scattered Clouds
8:56 AM 55.0 °F 54.0 °F 96% 29.84 in 6.0 mi East 5.8 mph - N/A   Partly Cloudy
9:56 AM 60.1 °F 55.9 °F 86% 29.85 in 10.0 mi East 8.1 mph - N/A   Clear
10:56 AM 64.9 °F 57.0 °F 75% 29.84 in 10.0 mi SE 9.2 mph - N/A   Clear
11:56 AM 69.1 °F 57.9 °F 68% 29.82 in 10.0 mi South 10.4 mph - N/A   Scattered Clouds
12:56 PM 72.0 °F 57.9 °F 61% 29.78 in 10.0 mi SSE 8.1 mph - N/A   Clear
1:22 PM 73.4 °F 57.2 °F 57% 29.78 in 1.8 mi South 16.1 mph 21.9 mph N/A   Haze
1:31 PM 73.4 °F 57.2 °F 57% 29.78 in 5.0 mi South 13.8 mph 21.9 mph N/A   Haze
1:56 PM 75.0 °F 57.0 °F 53% 29.75 in 10.0 mi South 12.7 mph - N/A   Clear
2:56 PM 75.9 °F 54.0 °F 46% 29.72 in 10.0 mi SSW 13.8 mph - N/A   Clear
3:56 PM 77.0 °F 53.1 °F 43% 29.70 in 10.0 mi South 13.8 mph 19.6 mph N/A   Clear
4:56 PM 75.9 °F 53.1 °F 45% 29.68 in 10.0 mi SSE 12.7 mph - N/A   Clear
5:56 PM 73.0 °F 57.0 °F 57% 29.67 in 10.0 mi SSE 10.4 mph 20.7 mph N/A   Clear
6:56 PM 68.0 °F 59.0 °F 73% 29.66 in 10.0 mi SE 9.2 mph - N/A   Clear
7:56 PM 64.9 °F 59.0 °F 81% 29.67 in 10.0 mi SE 6.9 mph - N/A   Clear
8:56 PM 64.9 °F 59.0 °F 81% 29.65 in 10.0 mi SE 6.9 mph - N/A   Clear
9:56 PM 66.9 °F 60.1 °F 79% 29.57 in 10.0 mi SE 12.7 mph - N/A   Clear
10:56 PM 70.0 °F 62.1 °F 76% 29.51 in 10.0 mi SE 15.0 mph 24.2 mph N/A   Partly Cloudy
11:23 PM 71.6 °F 62.6 °F 73% 29.49 in 1.8 mi SSE 18.4 mph 25.3 mph N/A   Haze
11:26 PM 71.6 °F 62.6 °F 73% 29.49 in 0.8 mi SSE 23.0 mph 28.8 mph N/A   Haze
11:31 PM 71.6 °F 62.6 °F 73% 29.49 in 0.2 mi SSE 19.6 mph 29.9 mph N/A   Haze
11:39 PM 71.6 °F 62.6 °F 73% 29.50 in 0.8 mi SSE 19.6 mph 28.8 mph 0.00 in Rain Light Rain
11:41 PM 71.6 °F 62.6 °F 73% 29.50 in 3.0 mi South 19.6 mph 28.8 mph 0.00 in Rain , Thunderstorm Light Rain
11:56 PM 70.0 °F 64.0 °F 81% 29.45 in 10.0 mi SSE 15.0 mph 26.5 mph 0.00 in Rain , Thunderstorm Thunderstorms and Rain